Theta_e
328 328 328 329 329 329 329 329 328 329 329 328 328 328 329 330 330 330 331 331 332 332 332 333 333 334 334 334 334 334 334 333 333 334 334 333 333 332 334 336 335 336 336 335 336 336 335 334 334 335 334 333 334 334 334 334 333 333 333 331 329 328 325 323 321 321 318 319 322 323 324 324 323 323 322 321 318 318 318 318 318 317 316 316 315
329 329 329 330 329 329 329 330 330 331 329 328 328 328 328 329 330 331 331 332 333 332 332 333 333 334 334 334 334 334 334 334 334 334 334 333 332 333 332 333 335 335 336 335 336 336 336 335 335 335 335 334 334 334 334 334 333 332 332 332 331 330 329 326 324 322 321 315 318 319 322 324 322 323 322 320 318 317 317 317 317 317 316 316 315
321 328 330 330 330 330 330 330 331 331 331 330 329 329 329 329 329 329 330 332 333 333 333 334 334 334 334 334 334 333 334 333 334 334 333 333 333 333 333 332 332 334 335 335 335 336 335 335 335 335 336 335 334 335 335 334 334 333 333 333 332 332 331 330 326 322 320 317 317 319 320 322 322 321 322 322 320 318 317 317 317 317 317 316 315
315 318 325 330 330 331 330 330 330 331 331 331 331 331 331 331 331 331 331 332 332 334 334 334 334 334 333 333 333 333 333 333 333 334 334 334 334 333 333 332 332 332 334 335 336 336 335 335 335 335 335 335 335 335 335 335 334 333 333 333 333 332 332 330 329 326 319 319 316 319 320 320 321 321 322 322 319 317 318 318 317 317 316 316 315
313 314 316 323 329 331 331 331 331 330 331 332 332 333 332 332 332 332 332 332 332 333 334 334 334 334 333 333 333 333 334 334 333 333 334 334 334 334 334 334 333 332 333 334 337 336 336 335 336 336 335 334 334 335 335 334 335 334 333 334 333 333 332 330 328 326 321 319 317 317 318 320 320 320 321 319 317 316 316 316 317 317 316 316 316
312 313 314 315 318 324 329 331 331 331 332 332 332 333 333 332 333 333 333 332 332 333 333 334 334 334 334 334 334 334 334 334 334 334 334 334 334 334 334 334 334 333 333 333 334 335 336 336 336 336 336 334 334 335 335 335 335 335 334 334 333 332 331 329 328 326 324 320 318 315 315 318 317 317 320 320 318 315 315 316 316 317 316 315 315
311 312 313 314 314 315 317 323 330 332 332 333 333 333 333 332 332 333 333 333 332 332 333 333 334 334 335 335 335 334 334 334 334 334 334 334 334 334 334 334 334 334 334 334 334 335 336 337 337 337 336 336 335 335 335 335 335 335 335 334 333 331 330 329 327 326 324 321 317 318 316 318 319 316 318 320 319 318 316 314 314 316 316 316 315
311 311 311 311 313 314 316 316 317 321 330 333 333 332 333 332 332 333 333 332 333 333 333 333 333 334 334 334 335 335 335 334 334 334 335 335 334 334 334 334 334 334 334 334 334 335 336 336 337 337 337 337 336 336 336 335 336 335 335 335 332 331 330 329 327 326 325 322 319 316 314 316 314 314 317 318 316 316 317 315 313 314 315 316 316
310 310 310 310 311 312 314 315 317 318 319 321 328 332 332 332 332 332 332 332 333 333 334 334 334 333 334 334 334 334 334 334 335 335 335 335 335 334 335 334 334 334 334 334 334 335 335 336 337 337 338 334 329 330 331 331 336 335 335 334 333 331 330 329 328 327 325 324 321 315 315 314 315 315 314 315 316 316 316 316 315 315 315 315 316
309 309 309 309 310 311 312 313 314 315 315 316 317 321 328 331 331 330 331 331 331 332 332 333 333 333 333 334 334 335 334 334 330 323 324 335 335 336 335 335 334 334 334 334 334 334 334 335 336 333 329 327 324 319 318 319 324 334 336 335 333 332 330 329 328 327 327 324 323 319 316 315 315 315 315 316 317 316 315 315 314 313 312 314 315
309 309 309 310 310 310 310 311 312 312 312 314 314 315 317 323 329 330 331 331 331 331 331 331 331 332 333 333 333 334 335 335 321 312 311 316 332 336 335 335 335 334 334 334 333 334 334 334 335 336 331 327 327 316 314 314 314 317 320 324 328 334 331 330 329 328 327 326 325 322 321 320 317 317 316 316 317 317 316 315 315 312 312 312 311
308 308 309 310 310 310 310 310 310 310 311 311 311 312 313 315 319 324 329 330 331 332 331 331 331 332 332 333 333 334 335 326 313 311 310 309 317 334 335 335 334 334 334 334 334 334 334 334 334 334 334 335 334 331 320 313 311 312 312 314 315 317 321 330 330 328 327 326 325 324 323 322 321 318 316 316 316 316 316 315 315 313 312 311 312
307 308 309 309 310 310 310 310 310 310 310 310 311 311 311 311 312 314 318 324 328 331 332 332 332 332 332 331 332 333 333 320 310 310 309 308 308 320 333 333 333 333 333 333 333 334 333 332 332 333 335 329 331 334 333 327 313 311 313 313 313 312 310 311 317 331 331 329 327 326 326 325 322 321 319 317 317 316 315 315 314 314 314 313 313
307 307 308 309 310 310 310 310 309 309 310 310 310 310 310 310 310 311 312 317 321 324 327 330 332 332 332 331 331 332 332 321 309 309 309 307 306 310 331 333 332 333 333 333 333 333 333 332 332 331 333 332 333 333 334 333 330 324 322 325 327 322 312 310 310 313 323 331 330 328 329 327 325 323 321 317 317 316 316 315 315 314 314 314 316
306 307 307 308 309 309 309 309 309 309 309 309 309 309 309 309 310 310 311 311 312 317 322 325 327 329 330 331 331 331 332 316 308 306 307 306 306 307 325 329 331 332 333 333 333 333 333 333 333 332 332 333 334 331 333 333 332 330 328 328 329 330 328 326 324 325 327 332 332 331 330 329 328 324 323 320 320 320 320 318 318 317 317 317 313
305 306 306 307 307 308 308 307 308 308 308 308 308 308 308 309 309 309 310 310 311 315 320 324 325 326 328 329 329 329 332 313 307 306 306 305 305 316 323 326 328 330 332 333 334 334 334 334 334 333 334 333 325 313 318 331 333 332 330 330 330 331 331 325 318 319 328 332 333 332 330 328 319 324 322 322 321 321 320 319 317 316 315 313 313
304 305 306 306 307 307 307 307 307 308 308 308 307 307 307 308 308 309 309 309 309 310 313 318 323 326 326 327 327 328 329 319 308 305 305 304 307 320 323 325 326 328 330 333 334 335 335 335 334 334 333 333 320 311 309 315 331 332 331 330 330 331 331 332 315 309 311 312 314 314 313 310 309 309 308 309 317 319 320 317 316 316 313 312 312
304 305 305 306 306 307 307 307 307 307 307 307 307 307 307 308 308 309 308 308 309 309 311 313 318 323 325 326 327 327 328 322 311 307 304 304 309 321 324 324 325 326 328 331 333 333 333 329 333 333 333 332 316 310 310 314 328 331 331 330 329 329 331 333 328 320 308 307 307 307 306 306 305 305 306 306 307 314 321 317 317 316 315 314 312
304 304 305 306 306 307 307 307 307 307 307 307 307 307 307 307 308 309 309 309 309 310 311 310 312 316 322 326 324 325 327 323 312 307 305 305 308 319 323 324 324 325 326 328 330 332 332 327 324 325 329 326 313 311 308 312 327 329 331 331 329 329 331 333 331 328 324 320 320 317 314 309 312 314 314 304 305 314 323 323 321 318 316 315 314
304 304 305 306 306 307 307 307 307 307 307 307 307 307 308 308 308 308 309 309 309 310 310 310 310 311 314 319 323 326 326 326 322 309 307 305 304 317 323 324 324 325 326 328 328 329 329 330 326 310 308 311 310 308 304 301 324 329 330 330 330 330 333 333 332 332 329 326 326 325 324 322 317 315 317 314 312 319 322 324 323 321 319 318 316
304 304 305 306 306 307 307 307 306 307 307 307 308 308 309 308 309 309 309 309 309 309 309 309 310 310 311 314 318 321 324 325 323 310 308 307 305 306 321 324 326 326 327 325 327 328 328 328 330 317 307 307 308 308 303 298 306 328 330 329 331 331 328 333 330 322 330 327 326 326 325 324 321 319 318 318 315 316 319 321 324 323 321 319 318
304 305 305 306 306 306 306 307 307 307 308 309 308 308 309 310 310 310 309 309 308 308 308 308 309 309 310 312 317 320 322 319 325 315 308 307 306 303 316 324 325 327 327 327 327 328 329 330 330 322 308 307 304 304 301 300 299 317 327 317 315 312 324 331 330 327 329 325 325 324 324 324 323 322 321 320 319 318 319 320 321 323 323 323 321
304 305 305 305 306 306 306 306 306 308 308 308 308 307 308 309 309 310 309 308 308 307 307 307 307 307 308 309 311 316 321 323 312 318 311 307 306 303 304 315 311 322 326 326 327 328 329 330 329 319 309 306 305 307 307 304 304 310 310 312 311 310 316 328 326 327 326 324 323 324 324 324 323 323 322 321 321 320 320 320 320 321 321 322 322
304 304 304 305 305 306 306 306 305 305 305 306 306 306 307 308 309 309 309 308 307 306 306 306 306 306 306 307 309 311 315 320 314 309 313 308 305 302 302 304 309 319 325 327 328 328 328 328 325 313 307 306 306 306 306 306 310 303 302 307 304 307 324 320 322 325 323 322 322 323 324 325 325 325 324 323 322 322 322 322 322 322 321 321 321
303 303 304 304 304 305 304 303 302 302 303 303 303 303 304 305 306 308 308 307 306 305 305 305 305 305 306 306 307 309 313 317 320 315 306 307 304 301 300 302 304 306 318 326 326 327 318 314 312 308 307 307 305 304 302 301 300 300 300 301 309 320 324 325 325 326 324 324 323 324 325 324 326 326 325 324 323 323 321 321 322 322 322 322 322
302 302 303 304 304 303 301 300 300 300 300 301 301 302 303 304 305 306 307 306 306 305 305 305 305 305 305 306 307 308 311 315 318 321 315 311 307 301 300 302 305 306 311 321 315 312 309 308 307 307 306 307 310 311 311 308 300 301 300 304 317 321 323 325 326 325 325 325 323 323 325 325 323 325 324 324 322 322 321 321 319 319 319 319 319
301 302 302 303 302 300 298 298 297 298 299 299 300 301 302 303 304 304 306 306 306 306 305 305 305 305 305 306 307 309 311 316 319 321 321 320 318 312 304 305 305 305 309 315 314 317 312 311 313 307 309 306 308 308 308 304 303 306 306 311 317 323 324 325 326 327 325 326 324 325 326 326 324 321 321 321 321 322 320 318 319 319 318 319 318
300 301 302 302 300 299 298 296 296 297 298 299 300 301 302 303 303 304 305 306 306 306 305 305 304 305 305 305 306 306 307 310 314 319 321 321 320 317 312 310 312 313 314 316 319 322 321 308 307 309 308 308 309 310 313 313 314 311 312 313 319 321 320 320 322 327 329 328 328 324 318 320 321 322 321 320 321 321 320 318 318 319 317 317 315
300 301 301 301 299 298 297 297 297 297 298 299 300 301 301 302 303 304 306 308 308 307 306 306 306 306 306 306 305 305 306 307 310 307 318 309 316 320 315 312 313 314 312 308 317 319 314 312 312 312 312 312 310 314 315 317 317 315 315 315 318 322 322 323 324 325 326 325 324 323 322 321 321 320 319 320 320 322 322 320 320 320 320 317 316
299 299 300 300 298 297 297 296 297 297 298 298 298 299 297 297 299 301 303 302 301 300 300 305 307 307 307 307 308 306 306 308 303 303 304 305 305 307 309 307 306 311 308 303 309 319 317 316 316 314 314 314 314 315 316 318 318 316 316 309 315 320 320 321 323 325 324 324 325 322 322 321 322 321 320 319 321 322 321 314 321 320 319 318 317
298 298 299 298 296 296 296 296 296 297 297 297 297 296 297 299 297 296 296 298 299 299 297 297 297 298 303 305 305 301 300 300 298 298 298 299 301 302 302 303 302 302 302 304 312 317 316 316 316 316 314 317 316 317 316 317 316 317 318 316 317 316 315 320 322 321 319 321 321 323 322 322 323 322 322 320 321 321 321 318 320 320 319 319 318
297 297 298 297 296 295 296 296 296 296 296 296 296 295 296 297 299 299 299 299 296 296 296 296 296 296 296 297 302 305 301 299 298 298 298 298 299 300 301 301 301 300 299 302 309 313 318 318 318 318 318 316 316 317 317 318 317 318 318 315 316 316 316 320 320 323 321 321 320 316 321 322 324 321 322 320 310 321 321 319 318 318 318 320 319
297 297 297 296 296 295 295 295 295 295 294 294 294 295 295 296 296 298 301 298 298 296 295 295 295 295 295 296 296 297 300 302 301 300 299 299 299 299 299 300 300 298 298 305 310 310 317 319 320 320 319 317 319 319 318 318 319 319 320 318 317 317 318 319 318 322 321 321 319 318 318 318 319 317 310 313 316 320 321 321 320 318 317 317 315
297 297 295 295 295 295 295 295 295 294 294 294 294 294 295 295 295 296 298 297 298 297 297 296 294 293 294 294 294 295 296 297 299 300 300 300 300 300 299 301 299 298 301 309 314 315 318 319 320 320 321 319 320 317 317 317 317 318 319 319 319 320 319 320 320 320 316 316 319 315 313 319 313 317 317 318 318 319 318 314 320 319 318 317 317
297 294 291 293 295 295 295 295 294 294 293 293 293 293 293 293 293 294 295 295 294 295 296 298 297 297 298 295 294 294 295 295 297 299 300 300 301 300 298 303 301 299 303 313 314 317 317 317 319 320 321 320 319 319 318 317 316 315 315 317 317 318 318 318 319 320 319 319 318 316 311 313 318 314 312 313 312 310 310 313 316 318 318 317 317
296 295 295 294 294 295 295 294 294 293 293 292 293 293 292 292 292 293 293 293 293 294 295 297 297 295 295 296 296 295 294 294 295 297 298 300 300 298 303 304 306 305 305 311 315 316 318 319 320 320 319 316 316 316 317 317 316 318 319 316 311 313 312 313 310 313 315 316 313 313 312 314 315 309 312 314 314 314 312 311 312 311 312 315 313
295 294 294 294 294 294 294 294 294 293 290 291 292 292 292 292 291 292 292 293 292 293 294 295 294 294 294 296 298 297 293 295 296 297 298 297 295 303 310 308 309 308 307 311 312 314 314 315 315 315 316 316 317 318 318 318 319 318 312 317 317 317 315 313 309 306 310 309 311 312 312 311 311 310 308 306 305 308 310 308 307 303 302 303 300
294 293 293 293 294 294 294 293 293 290 292 291 292 292 291 291 291 291 291 291 291 291 292 293 292 292 291 294 301 302 298 295 295 295 295 295 296 308 312 311 310 310 309 313 314 314 314 313 313 315 316 317 315 313 311 311 311 311 312 311 310 310 304 306 301 312 308 305 303 302 302 302 302 301 301 303 303 303 302 301 303 305 301 298 299
293 290 289 288 289 293 293 292 292 292 292 291 291 290 289 289 290 290 290 290 290 291 291 292 291 290 291 293 295 300 301 301 301 301 302 304 305 308 309 311 311 311 312 312 310 310 311 309 308 308 307 307 306 306 305 304 305 305 307 305 304 304 301 299 299 296 295 296 296 296 299 301 300 301 302 302 301 301 301 303 302 303 304 303 302
292 292 290 288 291 291 292 291 291 292 291 291 290 290 290 289 289 289 289 289 289 289 290 290 290 290 290 291 292 294 296 295 295 296 297 299 300 301 303 302 304 304 305 305 306 306 306 306 305 305 305 305 304 303 303 303 302 301 301 300 300 299 299 298 297 297 297 297 298 297 296 294 293 294 297 300 300 300 300 300 300 299 301 302 302
292 291 288 289 289 291 291 291 291 291 292 291 291 290 289 289 289 289 289 289 288 289 289 289 290 290 289 289 290 291 294 293 293 293 293 293 294 295 296 297 298 299 300 300 300 300 300 299 299 299 299 299 299 299 300 299 299 298 297 295 295 294 295 296 295 293 294 294 294 294 294 293 293 295 296 295 295 295 294 295 295 295 296 296 296
291 291 290 289 290 289 289 289 290 291 291 291 291 290 290 289 289 289 288 288 288 288 288 289 289 290 289 289 289 290 292 292 292 292 292 292 292 292 292 292 294 295 295 296 296 295 295 294 294 294 293 294 294 294 294 294 293 293 292 292 291 291 291 291 291 291 291 292 292 292 292 292 292 293 294 293 291 291 292 292 294 294 294 294 294
289 290 289 289 289 288 287 288 289 290 290 290 290 289 289 289 289 289 288 288 288 287 288 287 288 289 288 287 288 288 290 291 289 290 290 290 290 290 290 290 290 291 292 293 294 293 292 292 291 291 291 291 291 291 291 291 290 290 290 289 289 289 289 289 289 289 290 290 291 290 291 291 291 291 291 292 292 292 291 290 290 290 291 292 293
288 289 288 288 288 288 288 288 287 288 288 288 289 289 289 290 289 289 288 288 288 288 287 287 287 287 288 288 288 289 289 289 289 290 289 289 289 288 289 289 289 289 289 290 291 291 291 290 289 290 290 290 290 290 290 290 289 289 288 288 287 287 288 288 288 289 289 290 291 291 291 291 291 291 290 289 289 288 288 288 288 289 289 289 290
288 288 288 289 287 287 287 287 286 287 287 287 288 289 289 289 289 288 288 288 288 287 287 287 287 287 287 287 287 287 288 288 287 288 288 289 288 288 288 287 287 287 287 287 288 288 288 288 288 287 287 288 288 288 288 288 288 288 287 287 286 286 287 288 289 289 290 290 291 291 291 291 291 290 289 289 288 288 287 288 288 289 289 289 290
286 287 287 288 287 287 286 286 285 286 286 286 286 286 287 288 288 288 288 288 288 287 287 287 287 287 286 287 287 287 287 287 287 287 287 288 288 288 288 287 287 286 285 285 286 286 286 286 286 286 285 286 286 286 287 287 287 287 286 286 286 286 287 288 289 290 290 291 290 291 290 290 290 290 289 289 289 288 288 288 288 289 289 290 290
287 287 287 288 287 286 286 287 285 285 285 285 285 285 285 286 286 287 287 287 287 287 287 287 287 286 286 286 286 286 286 286 286 286 286 287 287 287 287 287 286 286 285 284 284 284 284 284 284 284 284 284 284 284 285 285 285 285 285 285 285 286 286 286 289 290 290 290 290 290 289 288 288 288 288 288 289 289 289 288 289 288 289 289 289
286 287 287 286 286 287 287 286 286 285 284 284 284 284 284 284 284 285 285 286 286 286 286 286 286 286 286 286 286 286 286 286 286 286 286 286 287 287 287 286 285 285 284 284 283 283 283 283 283 283 283 283 283 283 283 283 284 284 284 284 284 285 285 285 287 288 288 289 290 290 290 289 288 287 286 287 287 288 288 288 288 288 288 288 288
286 287 288 287 286 286 287 287 286 285 284 283 283 284 283 283 283 283 284 284 284 285 286 286 285 286 286 286 286 286 286 286 286 286 286 286 286 286 286 286 285 284 283 283 283 282 282 282 282 282 282 282 282 282 282 282 282 282 283 283 283 283 284 284 285 286 286 288 289 290 289 288 287 286 285 285 285 286 287 287 288 288 287 287 287
286 286 287 287 285 286 286 286 285 284 284 283 283 282 283 282 283 282 282 282 282 282 283 284 284 284 284 285 285 285 285 285 285 285 285 285 285 286 286 286 285 284 283 282 282 282 282 281 281 281 281 281 281 281 281 281 282 282 282 282 282 283 284 285 285 285 286 286 288 288 288 287 286 286 285 285 285 285 285 286 286 287 287 287 287
285 285 285 286 285 285 285 284 285 284 283 283 283 282 282 282 281 282 282 281 281 281 281 281 281 281 282 283 284 284 284 284 284 284 284 284 284 285 284 284 284 284 284 283 281 280 280 280 280 280 280 280 280 280 280 280 280 280 280 281 281 282 283 284 286 286 287 287 289 289 287 287 286 285 285 285 286 286 286 286 287 287 287 287 287
Wind_Speed
4 6 5 5 5 7 7 5 7 7 5 4 4 5 6 7 9 10 9 10 9 9 9 11 12 11 10 11 12 12 12 10 8 7 7 7 6 9 11 10 11 11 10 11 11 11 12 12 13 12 9 9 9 8 8 8 8 8 8 8 8 7 8 8 9 9 3 3 4 7 6 7 7 9 9 7 6 7 8 8 8 8 8 8 10
6 6 6 6 5 6 6 5 6 5 7 6 6 6 7 7 8 8 10 12 10 10 11 11 12 10 10 12 13 13 13 14 13 11 10 11 11 7 8 13 12 11 10 12 13 11 11 12 13 12 10 11 9 10 9 8 8 8 8 8 9 9 8 8 9 8 8 1 4 2 4 7 8 7 10 9 7 6 8 7 6 8 8 7 8
6 6 6 5 7 7 6 6 6 7 8 7 8 8 8 8 6 7 8 9 8 9 11 11 11 11 12 14 14 13 14 14 13 13 12 11 11 11 10 8 12 12 12 14 13 12 11 12 13 11 9 10 11 10 9 10 9 10 11 8 9 9 8 9 7 7 7 6 4 5 6 7 9 8 9 8 8 8 9 8 8 7 6 8 8
8 8 7 7 6 5 4 4 5 6 7 7 8 9 8 8 7 7 8 7 8 7 7 8 9 9 11 13 12 12 12 12 12 12 13 13 12 12 12 12 10 12 14 14 13 12 13 13 13 12 11 12 12 10 10 9 10 10 10 10 9 9 8 7 8 6 5 6 5 7 6 7 6 3 6 6 6 7 8 7 5 6 7 7 8
10 9 7 8 8 6 6 6 5 5 6 6 7 7 7 8 8 10 10 10 9 8 8 6 6 7 9 11 11 11 11 12 12 12 11 11 12 12 12 12 12 12 12 13 13 13 13 15 15 12 11 12 12 11 11 12 11 10 11 10 9 8 6 7 7 6 6 7 5 4 4 4 4 3 6 7 5 4 4 6 7 7 7 7 7
11 10 8 7 7 7 7 5 6 7 7 7 8 8 8 8 9 9 9 10 10 10 10 9 9 9 9 9 9 9 8 7 9 10 11 12 12 12 11 11 12 13 13 13 13 14 14 15 14 12 12 14 14 12 12 14 12 11 12 10 8 6 7 7 7 7 7 6 7 5 4 7 5 5 7 8 8 6 5 5 4 5 6 6 6
11 11 9 8 7 7 6 5 5 6 7 8 8 8 8 10 10 10 9 9 9 10 10 11 9 10 11 10 10 9 9 9 8 8 8 8 11 12 12 12 12 12 13 14 14 14 15 14 14 13 14 15 15 13 12 12 12 13 12 11 8 8 8 8 7 8 7 6 5 6 7 7 7 8 5 8 7 8 10 8 8 6 6 8 8
9 10 10 9 7 7 7 6 5 5 5 6 7 8 8 8 8 9 8 9 10 11 10 11 10 10 11 11 11 11 11 10 10 10 9 10 11 12 13 13 13 13 13 14 15 14 15 15 15 14 15 15 15 13 12 12 11 12 11 9 9 9 10 8 8 8 8 7 7 6 5 7 4 1 3 6 6 5 8 9 11 9 9 8 9
9 9 9 9 8 7 6 5 5 4 4 5 6 7 7 7 7 7 7 8 9 10 10 10 10 10 10 11 11 11 11 11 10 11 12 12 11 11 12 12 13 13 13 14 14 13 13 13 15 15 16 19 19 16 14 13 11 11 11 10 10 10 9 9 9 9 8 8 6 3 6 6 7 8 8 9 13 12 7 7 7 7 7 7 7
8 8 8 9 8 8 7 6 5 5 5 5 5 6 6 6 6 7 7 9 9 9 9 10 10 11 11 11 11 11 10 9 12 17 15 12 11 10 10 11 11 11 12 11 12 12 13 13 14 21 21 21 19 18 18 18 17 14 11 11 12 11 11 11 10 10 10 10 9 8 8 9 9 10 11 9 6 4 6 8 9 5 4 6 6
8 8 8 8 8 8 7 6 6 5 5 5 5 6 7 5 4 5 7 8 9 10 10 11 11 11 12 12 12 11 11 11 18 19 20 20 15 13 13 13 12 12 12 12 12 12 12 12 13 16 18 19 18 20 19 19 18 18 17 17 16 15 13 13 12 11 11 11 9 9 11 11 10 8 9 7 7 9 8 8 8 6 8 9 10
8 8 8 9 8 8 7 7 6 6 6 6 6 6 7 6 6 4 5 6 8 9 10 11 11 11 11 12 12 12 12 15 20 21 21 21 19 14 13 12 12 13 13 14 14 13 13 11 12 12 13 17 16 15 16 18 18 18 18 19 20 20 19 17 14 11 12 11 10 12 11 12 9 9 8 8 8 7 7 7 9 9 9 9 8
8 9 9 9 9 8 7 7 7 7 7 7 7 7 8 8 7 6 6 6 7 8 10 11 11 11 11 12 13 13 13 16 19 21 21 21 21 18 12 13 13 13 13 15 15 13 11 11 12 12 13 17 17 16 14 13 16 20 20 20 21 21 21 22 21 18 13 13 14 13 14 11 9 10 10 10 8 10 8 8 8 8 9 10 10
8 8 9 9 9 8 7 6 7 7 7 7 7 7 7 8 8 8 8 7 7 8 9 11 11 12 11 12 12 12 13 14 19 21 21 21 21 19 14 15 15 15 15 15 14 14 14 13 13 13 12 15 14 16 15 13 12 13 14 14 14 18 22 24 23 22 18 16 15 16 14 10 12 9 10 11 12 12 11 12 10 10 10 14 17
8 8 9 9 8 8 9 9 9 8 7 7 8 8 8 8 9 8 8 9 9 9 10 11 11 11 12 12 12 12 12 16 17 20 20 21 22 19 14 14 14 14 15 15 16 16 16 14 14 15 15 14 11 13 15 14 14 14 16 16 15 15 16 17 16 15 15 14 16 17 11 12 11 9 10 12 15 13 14 16 16 16 13 8 3
8 8 9 9 9 9 9 10 9 9 8 8 7 8 8 8 9 9 9 9 9 9 10 10 11 11 12 12 12 13 13 17 17 18 21 21 23 15 14 14 14 14 15 15 15 15 13 12 12 13 14 13 13 16 17 16 15 17 17 15 14 14 14 18 20 18 16 15 14 13 10 11 13 13 13 13 11 10 7 5 4 4 5 7 11
8 9 9 9 10 10 10 10 10 10 9 9 9 8 8 9 9 8 10 11 11 10 10 11 11 11 12 12 13 13 13 16 17 18 20 22 18 13 13 13 13 15 15 15 14 12 10 10 11 12 14 13 15 20 22 23 18 18 16 16 14 13 15 14 14 19 22 22 21 18 16 17 19 19 19 20 15 12 9 8 10 8 8 10 9
7 8 9 10 10 9 9 9 10 10 10 10 11 10 9 8 9 8 9 11 12 12 10 11 11 11 13 13 13 13 14 16 19 19 20 22 20 15 13 12 14 14 14 13 11 11 13 20 17 15 15 15 19 23 26 21 19 18 16 16 15 15 16 13 7 12 19 17 16 14 14 16 19 19 20 20 20 16 13 14 11 10 12 11 11
8 9 9 9 10 9 9 9 9 10 11 11 11 11 11 10 9 9 10 10 12 12 12 12 12 12 11 13 16 17 14 15 19 19 21 22 19 13 13 12 14 14 13 13 12 12 13 14 19 17 16 18 23 24 23 17 15 17 17 16 16 16 18 15 12 12 10 11 12 9 8 9 10 10 12 19 20 18 16 14 11 13 13 11 10
9 8 9 9 9 9 9 10 10 10 11 12 11 11 10 10 10 10 10 10 11 12 12 13 13 13 12 13 13 14 15 15 16 20 20 22 22 16 13 13 15 15 13 13 13 13 14 14 15 20 21 22 23 22 16 16 15 16 16 15 15 18 18 14 13 14 12 14 16 14 14 9 7 8 9 11 13 16 16 13 12 12 12 11 10
9 9 9 10 10 10 9 9 11 12 11 11 11 11 10 11 11 11 12 11 12 12 14 14 14 14 13 13 13 14 14 15 16 20 21 23 23 19 14 15 15 14 14 13 13 14 14 14 14 18 23 26 27 25 15 14 17 16 16 14 17 20 20 12 14 16 10 10 10 9 10 8 8 7 8 8 10 11 11 11 11 12 12 11 10
10 10 11 11 11 11 11 10 9 10 11 11 11 12 11 12 12 13 12 12 14 15 14 13 13 13 12 13 13 14 15 19 16 19 22 23 23 22 16 15 16 15 16 14 14 14 15 14 14 19 24 24 20 18 18 17 22 17 18 23 25 26 16 7 7 8 9 7 7 8 9 9 9 9 8 8 8 8 9 9 10 11 12 13 13
10 11 11 11 10 11 10 11 10 8 9 11 12 14 13 14 14 14 14 14 15 15 14 13 12 13 13 13 13 13 12 12 18 17 20 22 23 21 24 20 21 18 16 16 16 16 15 15 15 21 23 24 24 26 25 25 21 16 26 29 28 22 11 7 8 9 8 8 8 10 10 10 10 10 9 8 6 6 7 8 9 10 11 10 10
11 12 11 11 11 11 11 11 11 10 12 12 12 13 13 13 13 12 13 13 12 13 11 11 12 13 14 14 13 13 13 12 14 18 19 22 20 21 24 26 24 18 17 16 15 15 14 15 16 22 23 25 26 25 25 19 11 13 22 25 8 8 7 6 1 5 8 9 11 11 11 11 10 9 9 7 7 8 10 10 10 9 9 8 9
10 11 12 12 11 12 13 12 12 11 10 10 11 12 12 12 13 12 12 12 12 12 11 11 12 12 13 14 14 13 12 12 12 14 19 21 21 21 24 26 27 26 20 17 16 14 17 23 23 23 25 26 27 21 12 13 15 13 14 11 10 7 11 12 12 10 10 12 11 11 10 11 11 11 7 8 8 7 6 6 6 8 8 8 9
11 11 11 9 10 12 14 13 11 10 11 9 10 10 12 13 12 12 11 11 11 11 12 11 12 12 13 13 13 13 12 12 13 13 13 16 17 21 25 26 28 28 26 22 22 21 20 21 23 24 24 23 15 11 11 11 17 22 22 22 14 11 8 10 11 12 12 11 11 12 12 9 8 9 9 8 8 9 8 7 7 7 7 7 8
12 12 11 10 10 11 13 12 14 13 10 10 10 10 11 11 12 13 12 12 12 12 12 12 12 12 13 13 12 12 11 11 11 11 10 10 10 11 14 17 23 24 20 18 17 14 15 17 16 19 17 21 22 19 17 15 14 12 10 11 10 12 13 13 13 14 14 13 12 11 11 9 7 6 7 8 9 9 9 9 9 10 9 9 9
12 13 13 10 10 12 13 16 15 12 13 12 12 13 12 12 13 13 13 13 13 12 11 12 12 12 12 11 11 11 12 10 10 9 9 9 9 8 9 12 13 13 14 14 14 14 12 12 13 5 5 5 7 7 9 11 13 11 10 11 13 15 18 24 22 15 13 12 11 8 4 6 8 9 8 8 10 9 8 9 10 9 9 7 6
12 12 11 9 11 11 12 12 13 13 13 14 13 12 13 15 15 16 16 14 13 12 12 12 12 11 12 12 11 12 12 13 12 9 9 13 13 11 10 12 12 13 16 19 15 10 6 7 8 9 9 11 11 11 11 11 11 11 13 13 13 14 13 12 13 13 14 12 10 10 10 9 9 8 8 9 10 9 7 8 8 8 6 6 10
11 11 10 9 11 11 10 11 12 11 11 11 13 16 17 18 17 16 16 21 21 21 18 14 12 11 12 12 12 13 13 12 12 15 18 20 21 22 19 19 20 18 19 22 16 12 12 12 12 12 11 10 12 12 13 13 13 11 10 13 15 14 15 15 16 16 14 13 12 11 11 11 10 10 10 10 8 8 8 10 9 9 9 9 9
9 9 9 9 11 11 10 10 11 11 11 11 12 13 16 17 17 19 21 22 23 22 20 22 23 21 16 14 14 17 16 14 13 13 13 13 16 17 18 18 19 21 18 11 12 12 11 12 12 12 12 13 13 13 13 12 12 12 12 12 13 16 17 16 17 15 14 14 13 12 11 12 11 11 11 10 10 8 7 8 8 8 10 11 11
9 9 9 10 11 10 9 10 11 11 11 11 11 11 11 14 18 20 22 18 16 19 20 21 22 22 23 21 16 14 17 19 19 18 19 19 18 18 19 20 19 19 17 18 12 12 13 13 13 13 13 12 13 11 10 11 11 11 9 8 10 11 14 16 17 16 15 14 14 12 12 12 11 10 9 9 7 8 8 8 9 10 10 9 10
9 10 10 11 11 10 9 9 10 10 11 12 12 11 11 13 15 17 19 20 19 15 17 18 19 21 22 22 23 22 23 21 21 21 22 21 20 19 20 22 18 15 16 14 12 12 13 13 13 12 12 12 13 11 10 10 9 9 8 10 11 11 12 11 10 11 12 12 12 12 11 10 9 8 6 6 8 9 9 9 9 9 9 9 9
7 7 9 11 12 10 9 9 10 10 11 11 10 9 11 11 12 13 14 15 16 16 14 15 17 13 12 15 17 18 21 24 24 25 24 23 22 24 21 12 17 21 19 13 13 14 14 13 13 12 11 12 11 10 9 9 9 9 9 9 10 9 10 7 9 12 10 7 9 9 11 11 8 8 8 8 9 9 9 7 9 8 8 8 9
7 8 12 12 10 10 10 10 10 10 11 11 11 11 11 11 11 11 12 13 12 13 13 14 14 17 14 10 11 14 18 22 26 28 28 27 29 24 11 9 8 9 14 14 14 14 14 12 12 12 11 11 12 11 11 9 7 4 3 3 4 7 8 10 10 9 8 9 10 7 6 7 9 9 9 9 8 8 8 8 8 8 9 8 8
8 7 9 11 10 9 9 9 9 10 10 11 10 9 9 9 10 10 10 9 10 11 12 11 11 13 18 15 16 17 17 18 21 24 27 30 23 15 11 11 10 11 14 12 11 11 10 10 10 10 7 4 1 1 5 7 7 8 8 8 6 5 2 1 1 2 2 1 3 5 6 6 7 6 6 6 9 10 8 9 9 9 9 8 8
7 7 9 10 9 10 10 9 9 10 9 10 10 10 10 9 9 9 9 10 11 11 10 12 14 17 19 16 20 16 13 12 12 13 13 4 14 13 8 8 8 8 10 9 7 5 5 4 4 4 5 7 7 8 7 7 8 9 9 8 9 10 9 8 6 6 8 7 7 7 7 8 7 7 8 7 5 7 8 8 7 6 6 8 8
5 6 7 9 9 9 9 10 10 11 9 9 9 10 10 10 10 10 10 11 12 11 13 13 13 13 16 17 22 13 5 8 12 8 9 11 10 9 8 9 10 10 10 8 6 4 4 4 2 1 4 7 7 3 0 1 2 3 6 4 5 6 8 7 4 3 3 4 4 4 4 4 4 5 5 5 6 5 5 5 6 5 5 6 5
5 7 10 11 9 9 8 9 10 10 10 10 10 11 11 11 11 12 12 11 12 12 11 12 13 15 15 15 14 15 14 12 11 9 6 5 4 3 3 6 6 7 7 6 6 6 5 5 5 7 6 6 6 6 6 2 2 3 5 7 7 7 8 7 6 5 5 4 3 2 1 1 3 4 5 5 5 5 5 6 6 6 7 6 7
6 5 7 10 8 9 9 9 9 10 10 10 11 10 10 11 12 12 12 12 13 12 12 13 14 13 14 15 15 13 13 13 12 10 10 11 10 9 8 9 9 9 10 10 9 9 9 8 8 8 7 7 7 7 7 6 6 8 8 8 9 9 8 8 7 7 6 6 6 5 6 5 3 1 1 1 2 2 4 5 5 5 7 8 6
5 5 6 6 7 7 8 8 9 9 9 10 10 10 10 10 10 10 10 11 11 11 12 12 11 12 14 18 24 21 11 11 11 11 11 11 11 10 10 10 11 11 11 11 10 9 9 10 8 8 8 8 7 8 7 6 7 9 10 9 9 8 8 8 8 6 6 6 5 4 4 4 3 4 3 1 3 3 3 3 3 3 4 4 5
6 5 6 6 6 6 6 8 8 10 9 9 10 10 10 10 9 9 10 10 10 11 12 11 11 10 15 27 23 21 13 10 10 11 12 12 11 11 11 12 13 13 12 11 10 9 9 9 9 8 9 8 8 8 9 9 8 9 9 9 9 8 8 7 6 5 5 4 5 4 3 3 3 2 2 3 1 2 2 3 4 4 4 5 5
5 5 5 5 6 6 5 6 6 7 9 9 9 9 10 10 10 10 9 10 10 10 9 11 11 11 13 18 19 18 13 12 12 13 12 11 11 11 12 11 11 10 10 9 10 9 8 9 10 9 9 10 10 9 9 8 8 8 8 9 8 8 7 5 4 4 3 4 4 4 4 3 2 2 1 1 1 1 1 2 3 3 4 4 4
5 5 5 3 5 5 5 5 6 6 6 8 8 8 9 9 9 10 10 10 10 10 10 10 10 11 10 12 14 14 13 13 13 11 11 11 11 12 11 11 10 10 10 9 9 8 9 9 9 9 9 9 9 10 9 9 9 9 8 8 7 7 7 6 6 4 4 4 4 4 3 3 3 3 3 2 2 3 2 2 3 3 4 4 4
4 4 4 4 5 5 5 5 5 6 6 6 6 7 8 8 9 9 9 9 9 9 9 9 10 10 10 11 11 11 11 10 11 11 12 12 11 11 10 10 11 11 10 10 9 9 9 9 9 9 10 10 9 9 9 9 9 10 10 8 7 7 6 5 4 3 3 4 4 4 4 4 3 3 3 3 3 2 3 3 3 4 3 3 3
4 4 3 2 4 5 6 5 4 5 5 6 6 6 7 7 8 8 9 8 8 8 8 9 9 9 9 9 9 10 9 10 10 10 10 10 10 10 9 9 10 10 10 10 10 11 10 10 10 10 11 11 10 9 9 10 10 10 10 9 8 6 5 4 5 5 5 5 4 4 4 4 5 4 5 4 4 3 2 3 3 3 3 4 4
4 4 3 2 2 3 5 4 4 5 5 5 6 6 6 6 6 7 8 9 9 8 8 8 8 8 8 8 8 8 8 9 9 9 10 10 9 9 9 9 9 9 10 10 9 9 9 10 10 10 10 10 9 10 10 9 9 8 8 7 7 7 6 5 5 5 4 4 3 3 4 3 2 2 2 2 1 1 1 2 2 3 3 3 3
3 3 1 2 1 1 3 3 5 5 4 5 5 5 5 5 6 6 6 7 8 8 8 8 8 8 8 8 8 8 8 8 8 9 8 9 8 8 9 9 9 9 9 10 10 9 8 8 9 8 8 9 9 9 9 9 8 8 7 6 6 7 6 5 3 4 3 2 2 2 2 3 4 3 3 2 2 2 2 2 2 2 2 2 2
4 3 1 1 2 2 1 1 1 2 3 3 4 5 5 5 5 5 5 5 6 6 6 7 7 7 7 8 7 7 7 8 8 8 8 8 8 8 8 8 9 8 9 9 9 9 9 8 8 8 9 9 9 10 10 10 10 9 9 7 9 13 11 9 5 5 4 3 3 3 3 3 3 3 2 3 3 2 2 2 1 2 2 2 2
3 2 2 2 3 3 3 1 1 2 1 2 2 3 3 4 3 4 5 5 5 5 5 5 5 6 6 6 7 7 7 7 7 7 7 7 7 7 7 8 8 9 9 9 8 8 8 9 9 9 9 9 10 10 9 9 9 10 9 9 13 13 13 10 8 8 4 3 3 3 3 3 3 3 3 3 3 3 3 3 2 2 2 2 2
2 1 2 1 2 3 3 2 1 1 2 1 1 1 2 3 3 4 4 4 4 4 5 5 5 5 5 5 4 5 6 6 6 6 6 7 7 7 7 7 8 8 8 8 8 9 8 8 8 8 8 8 8 8 8 8 8 9 11 14 14 14 14 12 9 10 9 6 4 5 6 6 4 5 3 3 2 3 2 1 1 1 1 1 1
Wind_Direction
235 237 240 245 228 221 222 225 239 232 235 238 224 219 221 216 215 214 221 225 210 208 206 208 211 204 198 200 205 206 204 199 198 194 190 186 218 265 270 244 224 226 218 217 216 216 216 219 219 218 201 201 206 206 208 204 203 208 205 202 207 202 190 198 217 245 277 225 185 201 192 168 189 194 191 192 176 194 199 193 190 192 196 200 203
284 266 254 241 236 249 251 233 223 237 249 231 224 225 228 231 228 222 221 229 221 218 212 214 219 206 201 211 213 213 212 207 193 186 190 191 192 204 250 260 248 229 224 224 219 219 216 220 224 221 209 209 206 211 206 204 203 207 212 207 211 207 204 196 219 221 238 265 203 181 175 184 193 188 191 189 196 179 195 196 195 191 195 198 202
317 292 269 252 240 231 223 218 217 219 219 219 226 229 229 232 230 233 240 244 238 232 231 225 223 213 205 210 213 213 213 210 199 187 186 190 193 197 204 232 260 253 232 230 227 222 221 222 225 221 215 215 213 214 206 210 205 209 214 212 217 215 205 210 202 221 216 231 195 180 187 188 198 191 194 197 190 184 193 197 195 195 197 197 201
330 327 311 286 270 266 244 222 219 225 229 225 227 226 223 227 223 227 237 245 251 251 255 251 241 229 217 215 212 212 215 216 207 196 189 186 190 202 201 201 216 250 259 242 233 228 225 227 227 220 215 218 217 211 210 210 209 212 216 217 218 217 210 206 216 210 196 205 213 191 191 177 212 184 189 181 175 183 201 203 197 199 201 198 202
330 330 328 315 303 291 284 287 273 256 251 251 250 248 238 236 233 227 224 223 227 236 240 238 245 239 232 229 221 214 217 220 217 205 195 188 191 200 201 199 202 211 235 258 252 233 233 230 229 220 216 222 222 216 211 211 213 211 216 217 216 214 209 205 213 204 187 203 198 206 171 194 190 172 172 174 173 178 197 207 204 205 203 205 205
332 328 331 330 314 299 292 277 264 263 260 254 249 246 240 248 249 241 231 227 224 227 227 220 217 226 233 237 234 228 225 238 250 236 207 195 195 199 204 204 205 209 212 222 248 254 237 236 234 224 218 220 224 220 215 214 212 214 217 216 210 200 207 210 206 211 209 203 175 175 182 182 183 194 180 178 173 175 194 215 217 212 200 206 212
336 332 329 331 329 319 297 280 270 255 248 247 245 238 225 216 224 236 236 234 233 231 228 227 215 215 222 224 228 228 226 222 227 239 241 224 209 203 205 210 212 215 215 216 218 240 250 241 239 232 225 223 223 219 217 218 214 216 214 213 201 196 205 207 206 210 211 199 201 193 183 203 187 188 185 182 186 186 187 193 216 209 205 203 211
334 330 325 320 318 313 312 300 287 271 265 259 250 244 235 224 221 223 226 231 233 234 233 229 226 217 220 220 221 220 221 217 211 218 223 225 222 215 207 209 213 216 220 218 221 218 236 245 242 237 233 231 225 220 213 217 216 218 211 203 197 196 204 206 206 209 207 210 198 193 196 183 198 140 124 160 184 217 206 192 202 202 208 205 208
325 323 319 314 306 301 299 297 290 289 279 273 271 261 250 241 236 229 225 232 235 238 237 235 237 234 226 223 221 218 219 217 213 211 215 217 220 226 222 213 212 215 221 223 227 225 224 236 247 241 238 237 231 222 216 213 211 216 209 196 195 195 200 204 208 205 212 209 215 175 182 195 193 174 177 189 201 207 183 187 213 211 207 209 220
320 318 314 311 308 304 301 299 297 297 300 293 286 281 273 260 248 244 239 236 239 240 239 236 234 234 232 228 224 220 217 217 217 214 209 210 211 217 225 227 222 220 222 226 231 230 229 227 240 248 243 241 237 229 223 217 213 213 207 196 193 192 198 201 205 208 205 208 210 191 199 212 196 196 199 203 181 141 159 188 210 196 180 222 235
323 319 316 313 310 305 303 298 298 298 292 292 291 293 289 281 257 242 245 245 243 243 239 239 236 234 232 231 228 223 219 217 210 208 210 206 206 210 215 220 219 219 222 223 228 225 226 229 238 250 252 246 239 232 226 221 214 214 209 201 199 193 192 200 209 202 203 212 205 201 215 218 209 197 203 178 179 188 188 187 195 175 198 202 223
321 319 317 317 314 311 304 297 297 295 298 293 291 289 292 292 285 264 244 240 242 243 245 242 240 237 234 232 229 225 223 218 209 209 208 208 208 211 214 219 219 219 219 223 225 225 223 219 225 238 246 250 242 235 233 227 218 214 210 203 202 201 196 195 201 199 205 208 205 214 211 221 204 188 189 171 185 183 190 182 191 192 202 214 219
320 319 318 318 316 314 313 314 315 319 318 318 315 316 310 305 300 291 271 252 244 240 243 244 244 240 234 232 230 226 228 218 210 207 208 207 208 209 216 216 221 224 221 222 225 225 225 224 225 225 234 247 248 241 230 226 224 219 212 211 207 202 205 207 199 199 196 202 210 214 213 208 201 205 185 183 163 183 178 190 197 203 207 215 223
323 319 319 320 320 321 328 339 339 334 332 330 328 324 321 312 307 303 295 279 259 250 244 244 244 243 240 237 235 234 230 227 214 211 209 207 206 203 215 215 219 223 224 224 226 222 222 220 225 231 224 231 233 239 234 220 219 221 223 219 215 212 209 208 208 205 194 202 206 218 215 188 209 188 184 161 167 185 185 201 193 201 206 216 222
322 322 321 321 323 327 330 328 323 320 317 316 314 311 307 305 303 301 300 295 287 270 254 247 243 242 242 240 241 240 236 229 219 216 217 213 212 203 213 216 220 223 223 221 223 223 221 217 218 228 233 232 226 234 241 230 220 219 219 219 216 215 213 216 211 206 205 210 212 220 206 197 201 180 175 179 185 189 189 196 194 201 209 232 316
317 319 318 319 319 320 319 317 312 311 309 308 303 300 300 296 297 298 293 288 282 280 272 258 247 242 240 241 241 243 244 234 224 219 220 220 217 212 215 218 223 227 228 225 224 225 226 217 216 222 230 232 226 231 237 237 227 222 221 221 221 221 222 220 210 205 207 213 216 216 205 191 189 186 181 183 190 185 186 176 157 176 194 215 225
318 316 314 313 313 312 312 308 306 302 302 298 293 289 288 288 285 287 288 288 283 274 271 263 256 247 243 240 239 242 244 240 229 221 221 223 220 222 219 220 219 223 228 227 225 222 219 218 215 219 224 225 217 222 226 222 230 226 220 219 220 221 231 229 209 210 214 215 216 214 198 191 192 189 183 181 178 174 165 179 199 169 190 219 227
315 313 309 309 305 304 301 300 297 299 296 295 293 289 282 274 275 274 274 280 281 279 274 270 262 253 246 242 236 239 242 239 232 226 222 223 217 221 221 223 226 223 226 228 223 217 208 203 207 211 219 224 221 223 229 217 219 225 219 217 217 222 232 227 190 214 222 227 231 228 210 198 193 191 187 185 178 167 175 200 185 172 206 210 221
316 313 310 305 302 298 296 292 290 291 292 289 290 289 285 281 275 271 266 268 270 274 271 268 265 258 252 246 243 240 242 240 234 229 226 225 221 223 223 222 227 227 221 220 219 223 226 220 216 213 212 223 225 225 224 210 209 225 227 217 216 220 228 219 202 209 204 211 228 222 234 214 202 194 198 190 183 185 194 199 170 188 206 208 215
311 310 307 305 301 299 297 297 292 289 287 287 285 282 281 281 274 272 270 265 266 265 266 264 263 260 255 249 244 243 245 245 239 231 230 230 221 218 223 225 227 230 221 218 219 224 226 228 226 219 218 223 229 227 218 198 195 220 234 228 217 223 228 217 203 212 207 206 217 211 216 198 191 199 199 196 198 199 200 197 188 191 203 208 204
313 313 311 307 305 302 301 298 296 293 287 285 285 281 278 276 276 272 271 268 263 262 259 259 259 260 258 256 252 246 242 243 243 234 234 233 227 209 225 222 227 229 226 216 217 220 221 223 228 216 211 218 223 227 213 196 200 208 227 236 229 225 224 206 207 209 206 212 221 216 220 209 208 206 204 197 198 207 209 203 198 194 198 205 208
313 313 312 310 308 304 301 298 292 292 293 289 287 284 281 278 274 273 268 266 264 260 256 255 255 257 258 255 255 252 243 238 240 238 233 235 233 212 216 225 221 226 228 223 217 218 219 219 222 217 210 212 208 205 201 196 201 206 207 229 234 230 229 197 176 171 193 194 196 207 215 213 216 214 213 210 208 204 206 206 209 203 205 208 205
317 314 310 307 304 302 301 300 300 300 296 296 294 290 286 281 277 272 267 263 261 258 254 253 254 257 258 255 254 252 249 245 236 240 239 233 231 219 215 221 220 221 226 226 218 216 216 219 222 217 210 202 194 199 200 205 205 201 202 216 229 219 176 154 146 162 171 180 186 205 210 210 213 218 212 216 204 187 201 210 214 217 221 224 222
319 317 313 310 310 310 312 311 307 301 296 292 287 281 280 276 271 267 263 260 258 255 250 247 248 251 252 256 252 249 248 245 242 235 240 239 228 217 216 218 219 220 223 229 224 217 215 216 217 210 204 200 198 201 205 207 220 217 207 218 209 146 85 81 98 207 190 189 201 206 208 206 208 212 215 197 179 185 199 207 212 215 223 233 237
319 317 316 315 317 321 319 314 308 302 300 299 296 292 286 284 281 274 261 252 248 250 251 245 246 248 250 250 251 248 241 243 242 238 233 237 227 215 214 216 219 219 223 230 228 219 215 215 214 208 206 206 203 195 178 188 199 197 195 172 173 179 173 190 194 200 198 205 206 208 209 206 203 206 182 171 185 186 196 202 204 211 218 224 238
322 320 316 316 323 324 319 312 305 301 299 295 291 290 292 291 284 280 273 260 251 247 248 248 246 247 247 248 249 248 242 238 241 239 236 234 230 219 214 215 219 220 219 226 223 220 216 216 213 209 207 209 196 187 209 202 194 199 182 178 189 182 157 175 210 210 214 209 207 206 212 198 192 194 181 177 174 196 190 196 196 217 206 210 225
325 323 323 324 328 328 325 320 317 314 311 308 301 297 291 286 285 283 275 268 259 252 250 248 249 245 244 246 247 245 238 234 234 232 229 233 232 223 217 224 225 224 223 231 233 226 221 214 212 209 203 196 192 196 193 192 200 204 183 181 172 175 182 191 200 208 211 212 210 212 212 197 171 148 181 182 200 208 191 197 203 217 202 211 214
329 329 327 329 330 332 328 322 318 315 317 316 311 307 299 291 288 282 278 271 262 257 250 248 246 243 245 243 243 245 247 245 239 231 228 227 229 219 210 216 222 222 225 227 227 223 223 227 227 204 166 148 185 183 199 200 202 187 174 169 180 184 194 205 212 211 215 211 213 196 165 153 171 189 185 190 206 211 194 195 201 213 206 191 200
330 331 330 327 329 329 325 320 318 316 314 313 305 297 298 301 296 290 281 272 264 258 253 250 247 248 246 244 240 243 245 245 240 228 224 213 212 213 208 216 221 225 222 219 220 219 200 189 196 194 186 185 184 194 201 210 214 198 178 170 181 185 192 193 200 207 208 202 195 182 190 182 191 187 187 194 206 207 185 197 209 217 208 180 214
334 336 334 331 329 326 319 316 317 315 313 309 308 304 294 281 275 281 286 276 258 247 244 248 249 252 255 249 242 243 243 244 245 230 223 220 216 213 212 207 209 213 218 216 207 209 205 204 200 198 199 195 196 198 200 202 207 203 204 181 178 183 187 191 197 201 198 198 195 190 191 185 190 186 190 197 203 204 198 192 207 206 212 209 217
333 333 334 335 330 322 319 318 318 316 313 311 306 305 308 307 292 279 268 262 261 256 243 242 246 248 248 259 257 252 252 253 258 259 252 245 238 231 227 221 211 216 217 195 199 207 208 205 204 202 203 204 204 206 206 208 210 210 206 193 188 186 186 191 196 197 193 194 193 194 190 188 188 184 185 189 192 197 193 200 206 202 211 217 223
332 333 336 334 328 322 318 317 318 319 319 317 310 310 311 317 318 322 335 322 272 252 248 247 245 244 243 241 246 257 259 258 255 257 257 250 239 233 230 227 220 207 191 182 195 205 209 207 208 208 204 207 214 214 210 211 213 210 202 194 206 200 192 196 197 190 191 191 191 190 186 187 187 181 182 179 181 187 191 194 201 209 217 219 221
333 334 338 334 329 323 321 324 324 325 325 322 323 324 323 323 327 330 334 345 344 309 274 264 255 251 249 248 243 239 245 248 246 245 245 245 243 240 233 228 217 196 181 193 208 211 218 216 216 215 208 209 213 211 212 214 213 210 201 200 203 208 214 218 190 191 192 195 185 185 179 178 182 177 178 181 184 207 206 210 203 207 210 216 223
331 337 340 336 332 328 328 330 330 328 325 322 318 321 328 326 330 328 330 337 345 348 340 304 278 277 269 257 253 256 251 245 243 239 238 240 240 242 234 210 185 181 176 197 209 222 220 221 219 219 217 218 217 204 205 207 204 204 205 208 212 210 203 187 187 195 185 184 194 198 190 180 163 167 193 194 200 209 212 213 216 215 212 213 223
341 340 343 343 338 331 331 332 333 331 330 328 329 334 333 333 329 330 336 339 339 340 333 340 335 324 308 293 286 275 260 252 244 240 238 238 239 234 174 152 173 188 192 206 209 218 222 218 220 218 217 215 215 207 206 196 179 181 214 231 220 197 188 187 193 195 189 183 190 191 190 185 182 191 191 195 195 200 210 220 225 224 227 231 230
346 348 348 347 341 336 336 338 336 337 334 329 326 324 330 334 339 334 328 330 344 339 338 340 333 326 323 316 302 284 278 267 254 252 247 239 232 149 167 196 193 193 188 202 211 221 230 226 219 223 218 213 154 166 165 156 157 151 142 127 112 81 75 78 91 112 113 198 202 170 163 185 192 192 202 204 198 199 202 213 225 228 228 231 231
346 349 353 351 342 338 339 337 342 337 331 329 328 337 341 342 338 335 339 347 346 343 340 346 353 350 351 356 338 310 299 258 253 247 253 248 146 167 194 178 190 172 191 188 187 173 174 171 165 149 161 154 162 172 177 177 169 159 155 156 158 147 145 154 175 188 174 184 193 189 187 188 189 186 181 197 208 206 212 214 215 223 222 229 227
341 345 349 349 345 338 339 342 338 333 341 339 343 345 346 345 345 344 349 350 351 351 354 358 0 4 358 344 335 335 325 73 76 92 115 137 161 183 182 171 167 170 173 176 156 146 118 90 60 114 134 137 130 100 350 213 197 158 134 132 133 135 129 130 121 134 161 184 183 173 182 181 177 176 178 196 208 212 220 220 223 231 233 231 224
344 332 338 342 344 345 339 339 339 344 345 347 351 353 353 350 351 355 357 353 357 357 1 5 9 7 355 347 351 346 356 32 28 26 31 53 59 46 106 129 122 121 125 120 108 97 91 91 100 88 70 54 68 82 74 33 81 94 95 100 92 82 77 74 75 72 72 72 79 70 128 166 174 180 180 192 209 209 217 222 222 226 235 236 229
334 336 331 340 348 346 348 342 342 344 348 351 354 356 355 358 357 357 355 357 359 358 3 5 8 6 359 2 357 360 22 25 33 14 28 34 37 33 33 50 65 73 77 74 67 74 80 72 67 61 67 69 64 64 84 92 81 83 76 74 80 79 77 81 81 77 70 64 70 70 68 66 68 66 62 271 252 225 216 222 220 221 224 231 236
322 327 326 335 337 346 348 350 351 350 351 354 352 356 358 355 355 354 357 359 1 3 7 4 2 3 5 3 7 13 23 23 20 29 29 37 31 34 36 38 44 50 54 59 60 61 66 68 58 60 57 59 62 68 59 60 72 80 85 79 73 75 70 66 67 71 74 72 74 73 73 75 93 101 105 168 172 175 206 213 234 242 240 241 243
317 331 334 335 339 346 349 352 350 349 352 353 359 358 354 355 356 360 1 0 4 5 9 2 3 2 2 7 12 16 29 24 26 31 37 33 31 33 33 35 39 42 48 49 52 53 55 66 70 61 59 59 64 70 73 64 56 61 68 74 76 69 67 62 61 65 70 78 70 70 71 77 91 108 146 164 168 178 185 200 217 214 222 228 232
309 315 318 336 344 346 344 338 343 354 356 359 357 356 354 357 359 357 1 6 6 4 3 4 6 3 6 5 8 15 29 19 23 25 29 31 30 35 33 34 33 33 38 41 51 54 53 53 59 59 55 53 48 56 66 70 71 73 72 74 76 81 80 85 77 73 70 77 73 69 77 80 95 98 119 147 186 182 200 212 225 228 233 229 236
294 307 317 334 333 338 341 347 349 347 355 352 353 357 357 359 1 1 2 4 3 6 7 7 7 7 6 7 14 21 24 17 19 21 25 29 30 32 33 36 38 43 43 42 41 46 58 60 59 59 59 54 45 43 51 57 59 67 68 72 74 69 66 57 55 47 42 49 55 52 49 50 56 65 58 35 41 22 349 341 319 303 298 304 300
285 302 310 332 331 340 339 345 352 349 347 348 356 357 2 3 3 3 2 2 1 5 8 7 7 9 10 15 17 22 21 22 19 20 27 29 31 32 28 32 33 35 38 40 40 45 56 62 65 62 59 55 47 43 44 48 49 54 53 52 57 53 48 42 38 30 38 55 50 46 40 39 34 36 31 20 16 9 347 316 297 298 296 276 271
284 287 292 316 313 330 333 345 344 355 360 1 354 357 358 1 6 4 2 2 2 3 6 7 9 12 12 12 15 18 18 24 26 23 26 28 32 31 29 31 34 35 34 34 34 37 40 44 47 49 49 46 39 38 38 39 41 43 43 43 42 44 32 14 358 25 31 36 38 39 29 31 22 17 7 359 348 345 304 298 296 278 272 288 288
287 271 280 295 300 299 311 330 353 359 0 7 1 357 356 0 0 3 5 5 4 5 7 6 8 8 8 11 9 10 14 22 22 29 28 27 28 30 29 32 36 41 38 37 34 33 35 39 41 45 47 43 40 39 36 36 35 36 33 29 23 23 16 1 2 20 22 13 23 59 59 57 35 12 357 358 347 314 308 280 277 285 292 276 280
296 261 287 297 296 302 309 330 351 351 0 8 9 356 359 357 3 5 7 6 9 8 7 9 12 10 10 12 12 14 15 16 19 23 25 27 27 29 32 36 38 39 42 43 42 40 34 35 38 39 41 40 39 40 38 35 34 31 29 25 20 16 9 9 18 25 17 9 4 45 74 58 39 31 17 22 11 11 8 331 317 308 288 292 286
295 270 266 303 297 301 277 310 22 14 352 347 9 6 358 359 3 6 8 8 5 5 8 12 9 8 12 12 10 12 11 14 18 21 21 20 22 26 30 36 41 40 43 45 43 44 42 40 40 41 43 42 41 39 36 33 28 26 20 16 10 11 16 15 21 15 14 31 39 47 59 69 60 40 34 30 19 12 0 337 333 326 331 328 320
291 312 263 271 273 277 298 322 164 140 68 16 17 12 352 348 356 5 3 6 6 5 6 5 7 6 7 10 15 14 15 18 18 17 16 17 19 20 25 33 38 42 44 43 39 36 38 39 37 38 38 40 39 39 35 32 28 21 17 7 7 15 17 16 22 26 34 36 39 56 74 73 59 45 37 35 24 29 29 6 348 337 342 348 336
289 345 329 295 281 285 307 320 317 178 169 166 99 30 7 356 350 346 355 10 17 10 4 1 4 6 11 5 9 15 19 20 19 18 18 18 18 21 26 32 36 42 47 49 45 39 35 33 36 36 35 34 35 35 34 28 25 18 11 14 17 19 19 21 19 14 24 31 40 49 58 56 59 46 28 19 17 35 18 9 10 20 7 309 278